Date String (YYYY-MM-DD hh:mm:ss) UTC,Instrument flags,absolute air pressure of the measurement (hPa),sample flow rate (lpm),inlet stack bypass flow (lpm),air temperature of the measurement (°C),ambient temperature measured by the external sensor (°C),aerosol sample conditioner tube jacket temperature (°C),OPC LED temperature (°C),internal box temperature (°C),relative humidity of the measurement (%),span deviation,mass concentration of particles derived from Lorenz-Mie calculation of OPC scattering (μg/m³),mass concentration of particles derived from Lorenz-Mie calculation of OPC scattering (μg/m³),mass concentration of particles derived from Lorenz-Mie calculation of OPC scattering (μg/m³)
DateTimeUTC,F1_M11,P_M11,Q1_M11,Q2_M11,T1_M11,T2_M11,T3_M11,T4_M11,T5_M11,U1_M11,ZSPAN_M11,X0_M11,X2_M11,X1_M11
2023-10-18 06:00:00,SystemResetWarning,0828.0,5.00,000.00,028.3,025.4,000.0,036.8,029.8,11.9,0000.0,0004.66,0002.51,0001.89
2023-10-18 06:01:00,SystemResetWarning,0828.1,5.00,000.00,028.3,025.7,000.0,036.8,029.9,11.9,0000.0,0005.05,0002.56,0001.89
2023-10-18 06:02:00,SystemResetWarning,0828.1,5.00,000.00,028.3,026.0,000.0,036.8,029.9,12.0,0000.0,0005.08,0002.56,0001.90
2023-10-18 06:03:00,SystemResetWarning,0828.1,5.00,000.00,028.3,026.3,000.0,036.8,030.0,12.0,0000.0,0004.91,0002.55,0001.94
2023-10-18 06:04:00,SystemResetWarning,0828.2,5.00,000.00,028.3,026.5,000.0,036.8,030.0,12.1,0000.0,0004.87,0002.52,0001.95
2023-10-18 06:05:00,SystemResetWarning,0828.3,5.00,000.00,028.3,026.6,000.0,036.8,030.0,12.0,0000.0,0005.00,0002.57,0001.95
2023-10-18 06:06:00,SystemResetWarning,0828.3,5.00,000.00,028.3,026.8,000.0,036.8,030.1,11.9,0000.0,0005.01,0002.58,0001.97
2023-10-18 06:07:00,SystemResetWarning,0828.3,5.00,000.00,028.3,026.9,000.0,036.8,030.1,12.0,0000.0,0004.96,0002.58,0001.98
2023-10-18 06:08:00,SystemResetWarning,0828.4,5.00,000.00,028.4,027.0,000.0,036.8,030.1,11.8,0000.0,0004.26,0002.57,0001.98
2023-10-18 06:09:00,SystemResetWarning,0828.3,5.00,000.00,028.4,027.0,000.0,036.9,030.1,11.6,0000.0,0004.06,0002.53,0001.99
2023-10-18 06:10:00,SystemResetWarning,0828.3,5.00,000.00,028.4,027.1,000.0,036.9,030.2,11.6,0000.0,0004.45,0002.53,0001.99
2023-10-18 06:11:00,SystemResetWarning,0828.3,5.00,000.00,028.4,027.2,000.0,036.9,030.2,11.7,0000.0,0005.22,0002.49,0001.99
2023-10-18 06:12:00,SystemResetWarning,0828.3,5.00,000.00,028.5,027.2,000.0,036.9,030.2,11.6,0000.0,0004.99,0002.45,0002.00
2023-10-18 06:13:00,SystemResetWarning,0828.2,4.99,000.00,028.5,027.3,000.0,036.9,030.3,11.7,0000.0,0005.06,0002.52,0002.01
2023-10-18 06:14:00,SystemResetWarning,0828.2,4.99,000.00,028.5,027.3,000.0,036.9,030.3,11.7,0000.0,0005.19,0002.59,0002.02
2023-10-18 06:15:00,SystemResetWarning,0828.2,5.01,000.00,028.5,027.3,000.0,036.9,030.3,11.8,0000.0,0005.32,0002.67,0002.03
2023-10-18 06:16:00,SystemResetWarning,0828.1,5.00,000.00,028.6,027.4,000.0,037.0,030.3,11.9,0000.0,0005.24,0002.65,0002.04
2023-10-18 06:17:00,SystemResetWarning,0828.1,4.99,000.00,028.6,027.4,000.0,037.0,030.3,11.9,0000.0,0005.38,0002.70,0002.03
2023-10-18 06:18:00,SystemResetWarning,0828.1,4.99,000.00,028.6,027.4,000.0,037.0,030.3,11.9,0000.0,0005.37,0002.70,0002.03
2023-10-18 06:19:00,SystemResetWarning,0828.1,5.01,000.00,028.6,027.4,000.0,037.0,030.3,11.9,0000.0,0005.38,0002.72,0002.05
2023-10-18 06:20:00,SystemResetWarning,0828.0,5.01,000.00,028.6,027.4,000.0,037.0,030.4,11.9,0000.0,0005.56,0002.75,0002.06
2023-10-18 06:21:00,SystemResetWarning,0828.0,5.00,000.00,028.7,027.0,000.0,037.0,030.4,11.9,0000.0,0006.13,0002.74,0002.07
2023-10-18 06:22:00,SystemResetWarning,0828.1,5.00,000.00,028.6,025.3,000.0,037.0,030.2,12.0,0000.0,0005.03,0002.76,0002.08
2023-10-18 06:23:00,SystemResetWarning,0828.0,5.02,000.00,028.5,024.6,000.0,036.9,030.0,12.1,0000.0,0005.05,0002.76,0002.08
2023-10-18 06:24:00,SystemResetWarning,0828.0,4.99,000.00,028.4,024.6,000.0,036.9,029.8,12.1,0000.0,0005.00,0002.73,0002.09
2023-10-18 06:25:00,SystemResetWarning,0828.1,4.99,000.00,028.3,024.9,000.0,036.9,029.7,12.2,0000.0,0005.67,0002.67,0002.08
2023-10-18 06:26:00,SystemResetWarning,0828.1,5.00,000.00,028.3,025.3,000.0,036.9,029.8,12.3,0000.0,0005.58,0002.63,0002.08
2023-10-18 06:27:00,SystemResetWarning,0828.1,5.01,000.00,028.2,025.6,000.0,036.9,029.8,12.2,0000.0,0005.68,0002.64,0002.07
2023-10-18 06:28:00,SystemResetWarning,0828.1,5.01,000.00,028.2,025.8,000.0,036.8,029.8,12.2,0000.0,0005.61,0002.59,0002.08
2023-10-18 06:29:00,SystemResetWarning,0828.2,5.00,000.00,028.2,026.1,000.0,036.8,029.8,12.2,0000.0,0005.64,0002.60,0002.08
2023-10-18 06:30:00,SystemResetWarning,0828.2,4.99,000.00,028.2,026.2,000.0,036.8,029.9,12.2,0000.0,0005.61,0002.60,0002.07
2023-10-18 06:31:00,SystemResetWarning,0828.2,5.00,000.00,028.2,026.4,000.0,036.8,029.9,12.2,0000.0,0005.44,0002.57,0002.06
2023-10-18 06:32:00,SystemResetWarning,0828.3,5.00,000.00,028.2,026.5,000.0,036.8,030.0,12.3,0000.0,0004.96,0002.59,0002.05
2023-10-18 06:33:00,SystemResetWarning,0828.3,5.00,000.00,028.2,026.6,000.0,036.8,030.0,12.3,0000.0,0006.27,0002.57,0002.04
2023-10-18 06:34:00,SystemResetWarning,0828.2,5.00,000.00,028.3,026.7,000.0,036.8,030.0,12.3,0000.0,0006.33,0002.60,0002.04
2023-10-18 06:35:00,SystemResetWarning,0828.3,5.00,000.00,028.3,026.8,000.0,036.8,030.0,12.1,0000.0,0006.26,0002.61,0002.03
2023-10-18 06:36:00,SystemResetWarning,0828.3,5.01,000.00,028.3,026.9,000.0,036.8,030.1,12.1,0000.0,0005.49,0002.64,0002.03
2023-10-18 06:37:00,SystemResetWarning,0828.4,5.00,000.00,028.3,026.9,000.0,036.8,030.1,12.2,0000.0,0005.60,0002.64,0002.03
2023-10-18 06:38:00,SystemResetWarning,0828.4,5.00,000.00,028.3,027.0,000.0,036.8,030.1,12.1,0000.0,0005.54,0002.61,0002.03
2023-10-18 06:39:00,SystemResetWarning,0828.4,5.00,000.00,028.4,027.0,000.0,036.9,030.1,12.1,0000.0,0005.51,0002.63,0002.04
2023-10-18 06:40:00,SystemResetWarning,0828.4,5.00,000.00,028.4,027.1,000.0,036.9,030.2,12.2,0000.0,0005.56,0002.65,0002.02
2023-10-18 06:41:00,SystemResetWarning,0828.4,5.00,000.00,028.4,027.1,000.0,036.9,030.2,12.2,0000.0,0007.28,0002.69,0002.02
2023-10-18 06:42:00,SystemResetWarning,0828.4,5.00,000.00,028.4,027.2,000.0,036.9,030.2,12.2,0000.0,0007.99,0002.84,0002.01
2023-10-18 06:43:00,SystemResetWarning,0828.4,5.00,000.00,028.5,027.2,000.0,036.9,030.2,12.1,0000.0,0008.97,0002.96,0002.02
2023-10-18 06:44:00,SystemResetWarning,0828.5,5.00,000.00,028.5,027.2,000.0,036.9,030.2,12.2,0000.0,0008.32,0003.05,0002.03
2023-10-18 06:45:00,SystemResetWarning,0828.6,4.99,000.00,028.5,027.3,000.0,036.9,030.3,12.2,0000.0,0008.51,0003.12,0002.03
2023-10-18 06:46:00,SystemResetWarning,0828.5,5.00,000.00,028.5,027.3,000.0,037.0,030.3,12.1,0000.0,0008.65,0003.11,0002.02
2023-10-18 06:47:00,SystemResetWarning,0828.6,5.00,000.00,028.6,027.4,000.0,037.0,030.3,12.1,0000.0,0008.92,0003.12,0002.02
2023-10-18 06:48:00,SystemResetWarning,0828.6,5.00,000.00,028.6,027.4,000.0,037.0,030.4,12.0,0000.0,0008.89,0003.11,0002.04
2023-10-18 06:49:00,SystemResetWarning,0828.6,4.99,000.00,028.6,026.7,000.0,037.0,030.4,12.0,0000.0,0008.93,0003.14,0002.06
2023-10-18 06:50:00,SystemResetWarning,0828.6,5.00,000.00,028.6,024.9,000.0,036.9,030.2,12.0,0000.0,0009.16,0003.19,0002.09
2023-10-18 06:51:00,SystemResetWarning,0828.6,5.02,000.00,028.5,024.5,000.0,036.9,030.0,12.1,0000.0,0009.42,0003.18,0002.13
2023-10-18 06:52:00,SystemResetWarning,0828.6,4.99,000.00,028.4,024.7,000.0,036.8,029.9,12.1,0000.0,0009.54,0003.18,0002.17
2023-10-18 06:53:00,SystemResetWarning,0828.6,5.00,000.00,028.3,025.0,000.0,036.9,029.8,12.1,0000.0,0009.14,0003.15,0002.22
2023-10-18 06:54:00,SystemResetWarning,0828.6,5.01,000.00,028.3,025.4,000.0,036.9,029.9,12.1,0000.0,0008.37,0003.11,0002.25
2023-10-18 06:55:00,SystemResetWarning,0828.7,5.01,000.00,028.3,025.7,000.0,036.9,029.9,12.1,0000.0,0008.18,0003.07,0002.28
2023-10-18 06:56:00,SystemResetWarning,0828.7,4.99,000.00,028.3,026.0,000.0,036.8,030.0,12.1,0000.0,0008.44,0003.06,0002.31
2023-10-18 06:57:00,SystemResetWarning,0828.7,4.99,000.00,028.3,026.3,000.0,036.8,030.0,12.2,0000.0,0008.97,0003.12,0002.36
2023-10-18 06:58:00,SystemResetWarning,0828.7,5.01,000.00,028.3,026.5,000.0,036.8,030.0,12.1,0000.0,0008.91,0003.14,0002.39
2023-10-18 06:59:00,SystemResetWarning,0828.7,5.02,000.00,028.3,026.6,000.0,036.8,030.0,12.1,0000.0,0008.94,0003.18,0002.41
